User: anonymous   Login
Location: Unspecified
(0.0000°N, 0.0000°E)
Time: 08:58:39
(UTC+00:00)
Language:

STARLINK-5454 - Orbit

View from above orbital plane
View from above orbital plane
View from above satellite
View from above satellite

Ground track
Ground track

The orbit is defined by the following mean orbital elements,

1 54774U          26145.45837385 +.00000000 +00000-0 +28184-3 0 00007
2 54774  53.2139  44.1697 0001379  97.9383 262.1766 15.08818699    07
Epoch (UTC): 25 May 2026 11:00:03
Eccentricity: 0.0001379
inclination: 53.2139°
perigee height: 539 km
apogee height: 541 km
right ascension of ascending node: 44.1697°
argument of perigee: 97.9383°
revolutions per day: 15.08818699
mean anomaly at epoch: 262.1766°

The dashed part of the orbit path shows where the satellite is in the earth's shadow,  

DLR